Theta_e
317 317 317 317 318 317 318 318 318 318 318 318 319 319 320 319 320 320 320 321 320 321 322 323 324 324 325 325 326 325 323 317 313 312 309 310 321 334 339 338 335 333 329 314 312 310 308 310 309 310 312 311 308 310 310 311 307 309 302 299 297 297 296 300 300 302 301 301 302 302 301 302 301 304 303 303 303 302 304 304 306 304 303 304 303 306 306 307
316 316 316 317 317 318 318 317 317 318 318 318 319 319 319 319 319 320 320 320 321 321 322 323 323 324 325 325 325 325 322 317 311 313 313 323 335 340 339 337 336 332 323 311 310 308 307 307 308 310 309 306 310 307 310 309 309 304 300 300 297 299 299 301 302 303 301 301 302 302 299 301 302 302 304 302 303 302 303 304 304 304 302 305 306 306 306 307
315 315 315 315 316 317 317 317 317 317 318 318 318 319 319 318 319 319 320 320 321 321 322 323 323 324 325 326 324 323 318 312 310 309 312 327 337 338 339 334 331 330 314 311 309 310 308 309 309 308 307 305 307 306 310 306 308 304 304 298 299 302 300 300 302 303 303 302 302 302 299 299 302 301 303 301 301 302 301 302 303 303 302 303 304 305 305 306
315 316 315 315 316 317 316 316 317 317 317 318 318 318 318 318 319 320 320 320 321 321 322 322 323 324 324 324 326 322 316 312 305 308 312 327 337 339 336 334 326 317 312 310 309 310 309 310 309 309 306 305 305 306 303 305 305 304 302 299 301 300 300 302 301 303 302 301 302 301 300 300 303 302 302 301 301 302 301 301 299 299 301 303 303 303 304 304
316 317 316 316 317 317 316 316 316 317 317 317 317 318 317 319 319 319 320 320 321 321 322 322 323 324 324 325 322 322 313 303 305 310 315 330 337 339 333 330 321 313 312 309 311 309 310 309 308 307 306 301 304 304 302 305 304 305 301 302 302 299 301 303 303 302 301 299 301 299 299 301 301 301 301 301 299 301 299 298 299 301 302 301 301 302 304 303
317 316 317 317 316 317 317 316 316 317 317 317 318 318 319 319 319 319 320 320 321 321 322 322 323 323 324 323 320 314 308 294 307 311 328 330 336 335 332 326 320 311 311 310 310 309 309 307 307 304 302 301 300 300 300 303 303 300 301 301 301 303 302 303 302 300 300 300 300 300 301 301 300 301 301 300 300 299 300 301 301 301 301 301 302 302 302 302
317 317 317 317 316 317 316 317 316 316 317 317 317 318 319 320 319 320 320 320 321 322 322 322 322 323 323 320 316 313 305 306 310 314 327 333 336 330 328 322 322 313 312 310 309 309 307 306 305 303 302 301 299 300 301 302 304 301 299 300 301 301 302 303 302 299 300 300 300 301 299 299 300 299 298 299 297 300 300 301 300 301 301 302 301 301 300 301
317 318 318 316 316 316 316 316 317 316 317 317 317 318 319 319 320 320 320 321 321 321 322 322 322 322 322 318 314 310 306 305 311 312 319 328 326 321 318 314 314 315 311 309 309 307 307 304 303 302 302 300 300 301 299 300 302 301 300 301 300 299 302 302 301 300 300 300 301 298 298 300 300 300 299 297 298 300 300 301 300 301 301 301 300 300 300 300
318 318 318 316 316 316 315 316 316 316 317 317 317 318 319 319 320 320 320 321 321 321 321 322 322 321 320 314 309 303 303 315 309 321 323 317 313 311 316 313 312 312 308 307 308 309 307 304 303 304 300 300 300 300 298 299 300 300 300 301 300 300 300 300 300 300 300 300 298 298 299 299 299 299 297 296 297 300 300 300 300 301 300 299 299 299 299 300
318 317 318 317 317 317 318 317 317 317 317 317 317 318 318 319 320 320 320 321 321 321 321 322 320 319 313 314 310 299 308 309 320 322 320 312 310 312 311 314 312 310 309 306 307 308 306 306 305 305 305 300 300 300 299 299 299 301 300 300 300 301 298 301 299 301 297 299 299 299 300 298 298 297 297 296 297 300 300 299 299 299 298 298 298 299 299 299
318 318 319 319 319 319 319 318 318 317 317 317 317 318 318 319 320 320 321 321 321 321 321 321 318 315 315 309 305 301 315 321 321 322 313 310 311 312 312 310 311 310 309 306 308 308 308 308 307 305 305 302 301 299 299 299 300 299 299 298 299 299 299 300 298 298 299 299 298 299 297 298 297 297 297 296 298 300 299 298 298 298 298 298 298 298 299 299
318 319 320 321 320 320 320 317 318 317 316 316 317 318 318 319 320 320 321 321 321 321 321 319 317 314 308 309 306 307 310 314 321 317 312 314 314 313 312 308 309 314 310 307 309 310 310 308 307 304 302 303 300 299 298 299 299 298 298 298 300 300 301 299 298 297 296 299 296 300 297 295 296 296 297 298 297 299 299 298 297 297 297 297 298 298 298 298
319 320 321 321 322 321 319 319 318 317 317 316 317 318 319 319 320 321 321 321 321 320 321 320 316 315 310 303 307 309 308 320 316 312 312 314 310 309 308 309 309 308 310 309 309 311 307 308 308 304 303 303 301 299 299 300 298 297 299 297 298 300 300 297 297 297 298 298 295 297 295 297 296 297 298 299 298 299 299 299 298 297 297 297 297 298 298 298
320 321 321 320 321 321 319 318 318 317 317 316 318 318 319 319 320 321 321 319 321 319 319 318 317 314 307 305 306 306 311 319 312 313 312 311 313 312 310 309 308 308 311 310 307 306 305 307 308 304 304 302 300 301 300 299 299 298 297 297 297 296 297 297 298 298 298 296 296 299 295 297 296 296 298 298 297 297 299 298 297 297 296 296 297 297 297 297
320 320 321 321 320 320 319 318 318 318 317 317 317 318 319 320 321 321 320 318 318 321 319 319 315 310 305 307 306 315 318 319 314 315 314 311 311 310 308 309 307 306 307 309 307 305 307 311 308 304 301 299 302 300 298 299 298 297 296 296 296 295 298 297 297 296 298 297 298 298 295 298 297 296 298 297 298 299 298 297 296 296 296 296 296 297 297 297
321 320 321 321 322 320 318 319 319 317 316 316 317 319 320 321 321 320 320 319 319 318 318 316 313 309 304 304 308 321 313 310 314 312 312 312 316 311 311 307 307 307 307 305 305 306 307 308 303 301 300 300 300 299 298 297 298 296 296 296 296 295 296 297 296 296 296 296 299 298 296 298 296 296 297 297 297 298 298 296 296 295 295 296 296 296 297 297
321 321 321 320 321 320 319 320 319 317 316 317 318 319 321 321 319 318 318 315 314 316 318 310 311 308 303 308 310 306 307 310 307 313 311 309 310 309 308 308 306 305 307 306 308 309 306 305 299 301 301 300 300 300 295 294 295 296 295 295 298 294 296 295 296 297 298 297 297 298 296 298 296 296 296 296 296 297 297 295 294 295 295 295 295 295 296 296
321 321 321 321 321 322 320 319 318 317 316 317 318 319 319 319 320 319 317 317 316 314 313 312 310 310 305 305 303 304 306 308 311 307 308 306 310 308 308 305 302 306 306 305 306 304 303 301 301 300 299 298 298 298 293 291 296 296 294 293 294 293 293 294 295 296 296 297 297 296 296 298 298 295 296 295 295 296 296 295 294 294 294 294 294 295 295 295
321 321 321 322 322 321 320 319 317 317 316 318 320 320 319 317 318 317 314 314 307 305 303 303 303 299 299 303 305 306 309 308 309 310 308 308 306 307 307 307 308 305 303 302 301 302 302 302 302 298 296 296 296 297 296 298 297 296 297 296 295 294 294 294 296 296 296 296 296 297 295 298 300 297 294 295 295 296 295 294 294 293 293 293 294 294 294 295
321 321 322 322 322 321 320 319 318 317 318 317 318 317 314 308 309 307 310 310 307 307 304 306 307 303 303 301 305 306 307 310 308 308 309 307 308 307 304 305 305 305 301 299 300 301 303 298 295 295 297 299 299 299 300 298 297 296 296 295 294 294 295 297 295 296 295 295 295 297 297 297 298 300 295 294 295 295 294 294 294 293 293 293 293 293 293 294
321 321 322 322 321 320 319 319 318 318 318 318 316 310 304 305 301 301 305 308 312 309 305 305 307 305 303 305 306 305 305 304 306 307 308 309 307 308 303 304 302 299 300 299 301 298 299 296 297 299 299 299 299 300 297 296 296 295 295 294 294 294 293 297 295 294 296 294 295 295 294 296 297 298 294 294 294 294 293 293 293 292 292 292 292 292 293 293
320 321 321 321 320 320 319 319 319 319 319 318 315 309 309 308 308 308 307 303 309 310 309 307 305 305 306 305 307 308 309 304 304 306 308 307 306 304 302 302 299 298 297 297 298 296 295 294 298 300 297 296 296 297 296 296 295 295 294 294 293 294 296 297 295 294 295 293 294 295 293 295 298 296 293 293 293 293 292 293 292 291 291 292 292 292 292 293
320 321 321 321 320 319 319 319 318 318 317 314 311 310 311 316 312 312 311 306 304 310 307 307 304 305 305 308 308 305 304 302 302 305 306 307 302 302 301 299 298 298 296 298 296 295 292 296 299 297 297 296 293 294 294 294 295 294 293 292 291 296 293 293 293 293 293 294 294 294 292 295 298 293 293 292 292 291 291 290 290 291 291 291 290 291 292 292
320 320 321 320 320 319 319 318 319 316 314 314 313 313 315 310 311 311 311 302 301 306 306 308 308 307 306 304 309 306 304 303 304 302 308 305 302 303 301 300 297 296 295 296 298 296 295 296 295 297 297 296 294 293 293 293 293 295 295 294 294 294 294 294 294 293 293 293 291 293 293 294 297 294 292 290 291 290 290 290 290 290 291 290 291 291 291 291
320 320 320 320 319 319 318 317 313 312 315 314 312 317 319 314 314 310 308 303 303 303 310 308 309 309 309 310 308 305 305 304 304 307 307 306 300 299 300 300 299 295 297 297 297 296 296 296 296 295 295 295 295 292 294 296 293 294 295 295 296 296 294 294 293 292 293 293 293 292 289 292 294 292 294 291 290 290 290 290 290 290 290 290 290 290 290 291
319 319 320 319 319 318 319 310 311 314 312 310 314 318 320 320 317 312 306 299 294 302 303 300 311 305 315 304 307 306 304 300 304 306 307 306 307 303 298 297 298 296 296 295 295 296 297 295 298 295 295 295 295 295 297 296 295 293 295 296 296 295 294 294 292 292 289 288 291 290 289 288 294 294 293 291 290 290 289 290 290 290 290 290 290 290 290 290
320 319 319 319 319 319 311 306 315 315 307 309 318 318 316 319 313 311 300 294 290 302 299 305 305 306 311 305 306 307 295 299 301 304 304 305 303 305 299 297 296 296 297 298 294 292 295 294 294 297 296 295 294 293 296 295 295 292 294 294 295 294 293 293 293 292 292 293 293 289 292 287 288 295 292 292 290 290 289 290 290 290 290 289 290 290 290 290
320 320 319 319 319 317 313 315 312 309 310 312 310 316 312 312 311 310 300 285 286 306 300 299 304 308 308 301 306 304 299 301 299 299 299 302 302 302 300 297 297 296 295 297 290 297 296 293 295 295 295 294 294 297 297 297 296 294 291 294 294 294 295 294 293 292 292 290 288 291 292 287 287 293 288 290 289 289 289 290 290 290 290 290 290 290 290 290
320 319 319 318 318 318 319 315 312 309 315 308 311 312 310 311 310 305 294 283 300 297 312 300 310 304 301 303 301 297 298 297 298 297 300 301 302 301 298 299 299 297 296 298 296 296 295 296 296 298 296 293 295 291 296 297 295 292 292 293 292 293 292 293 292 291 289 288 285 290 291 286 288 294 294 290 289 291 291 291 292 291 290 290 289 289 289 289
320 320 319 319 318 316 315 316 313 317 310 310 311 311 312 311 307 295 287 281 304 294 300 300 299 298 301 299 299 297 296 295 295 297 300 299 299 301 295 299 297 296 296 295 296 295 292 293 293 296 295 296 291 290 290 293 293 294 295 295 293 293 292 291 292 290 288 283 286 292 291 290 285 293 294 295 295 295 294 293 292 291 290 290 290 290 289 289
319 320 319 318 313 314 314 308 314 312 310 310 311 312 311 309 297 290 282 292 303 297 298 297 294 300 298 297 295 295 294 293 295 297 295 298 297 298 298 297 300 297 294 294 293 294 293 293 294 295 292 291 295 291 291 290 292 295 294 293 292 290 291 290 288 289 284 284 286 285 287 289 283 290 296 296 291 292 294 292 290 290 290 289 290 289 289 289
319 319 320 317 317 317 309 308 315 312 310 310 311 308 305 293 298 286 286 301 292 295 296 294 294 298 298 298 297 292 294 292 295 296 295 295 294 294 295 295 294 289 288 290 290 292 291 293 295 294 294 294 294 293 290 292 291 293 293 292 288 286 285 283 285 281 283 284 285 286 286 286 286 293 294 293 294 291 292 293 293 291 291 290 290 290 289 289
318 318 318 318 316 315 315 318 317 313 311 310 309 308 299 291 282 292 293 296 293 298 294 298 294 295 298 296 294 292 294 293 294 294 295 294 295 296 297 296 299 297 291 293 292 290 292 294 293 295 294 294 297 292 289 288 290 291 291 289 287 283 282 280 283 282 282 284 285 286 289 284 291 293 296 296 292 290 290 291 292 293 292 290 290 290 289 289
318 318 316 316 316 316 316 316 315 313 310 309 307 301 297 286 286 297 296 296 296 293 295 293 293 296 296 295 295 294 292 294 293 293 295 293 293 293 294 295 294 294 295 291 290 290 287 287 291 292 291 297 296 297 295 294 290 291 297 293 290 289 284 280 282 281 283 284 283 286 284 286 285 291 287 289 288 288 288 289 291 292 292 292 291 290 289 289
318 318 317 316 315 317 316 316 315 314 310 306 301 296 286 286 291 292 294 297 294 296 293 296 295 294 293 294 293 295 297 291 295 293 292 292 290 293 293 294 294 296 296 291 293 290 291 292 292 295 292 294 295 294 295 294 292 292 292 293 288 288 291 285 283 284 282 283 282 281 285 291 291 287 288 287 288 288 288 288 289 290 290 290 289 289 288 288
316 315 317 312 312 316 317 316 315 314 309 302 296 290 287 291 289 299 297 303 296 294 292 295 295 293 292 293 293 293 297 294 292 293 291 292 294 292 296 296 294 295 294 292 293 287 288 288 291 293 291 293 295 293 293 296 287 290 290 287 290 292 291 281 279 279 279 283 283 288 287 290 293 289 287 288 287 288 287 288 289 289 290 289 289 289 288 288
312 315 310 313 313 317 317 316 315 312 307 300 294 288 294 296 301 301 302 300 299 296 294 291 290 292 290 290 292 291 294 295 292 293 290 293 290 293 292 294 299 295 297 298 290 296 288 289 290 291 290 291 290 292 293 292 295 291 286 291 291 293 294 289 284 282 282 281 283 285 285 287 286 286 288 288 287 289 288 287 288 289 288 288 289 289 289 289
312 311 311 312 315 317 317 316 314 310 305 298 291 293 297 295 303 302 300 296 295 298 295 294 296 296 291 292 291 291 294 293 291 292 291 292 291 298 293 294 297 297 297 298 295 294 296 288 289 289 290 290 290 293 293 293 293 293 292 298 291 286 285 288 286 280 279 279 282 283 285 286 289 290 288 289 288 290 288 287 287 288 287 288 289 289 289 289
312 309 303 311 318 318 316 316 312 306 299 293 291 290 297 299 303 302 301 302 301 298 295 297 296 295 296 292 294 293 292 288 290 290 289 291 289 296 294 297 294 297 298 297 294 294 295 289 287 290 290 291 291 292 286 289 292 292 293 292 293 291 290 285 287 286 286 282 278 281 279 283 289 293 293 293 293 293 289 287 287 289 289 289 290 290 289 289
306 302 302 315 318 318 316 314 307 303 297 289 291 291 300 297 301 303 302 301 298 297 297 297 301 295 295 295 294 289 291 293 290 291 292 293 292 296 294 297 296 294 297 298 297 299 292 295 287 288 291 291 286 289 289 290 286 288 290 289 290 288 289 290 288 286 285 283 281 282 280 285 291 294 295 296 295 294 291 289 290 290 290 290 291 290 289 289
309 303 302 315 318 318 314 308 300 296 294 295 296 294 297 297 299 301 302 303 301 301 298 298 299 295 296 293 292 295 290 291 291 290 292 293 293 290 296 296 297 294 295 296 296 297 291 290 287 286 286 286 290 293 292 293 293 291 290 288 290 287 285 283 282 285 284 284 282 280 280 287 292 288 292 292 290 294 293 291 292 290 291 291 291 291 291 290
304 295 301 312 318 316 307 297 297 300 297 293 292 296 296 303 298 300 300 301 300 299 300 298 297 296 294 294 294 293 291 290 291 291 293 291 294 294 294 293 294 296 294 290 293 298 297 291 289 285 288 289 290 290 288 289 290 292 292 291 294 292 291 287 282 283 282 284 284 283 279 285 290 288 288 289 289 289 292 292 292 292 292 291 291 292 292 291
301 300 304 306 315 313 304 296 298 297 295 298 302 300 302 300 299 300 299 299 298 299 297 296 298 296 296 296 294 293 293 288 291 290 293 292 293 294 292 292 294 296 298 294 296 291 293 290 288 287 291 290 290 290 289 288 290 290 290 288 290 289 291 289 289 287 286 284 282 282 280 285 289 288 287 287 287 287 288 290 291 292 291 291 291 291 291 291
300 299 301 309 310 312 301 291 291 294 296 298 298 298 302 300 299 297 298 299 298 296 297 296 296 300 297 297 295 292 295 287 292 291 290 292 291 292 291 292 295 289 294 293 292 298 290 289 289 286 285 285 287 289 288 290 290 289 289 290 291 291 287 285 285 286 285 285 285 284 279 286 287 287 289 287 287 288 288 288 289 289 290 291 291 291 291 290
297 299 300 302 306 304 297 299 295 294 295 295 296 294 295 297 300 301 300 298 299 297 296 295 298 298 295 296 296 296 295 293 287 290 292 290 292 291 289 293 295 293 291 295 294 300 292 291 289 284 281 278 278 279 282 284 286 289 286 287 288 289 286 286 284 285 282 285 285 284 284 291 288 289 290 289 288 289 288 288 288 289 289 289 290 290 289 288
294 289 296 298 301 299 298 297 298 297 294 295 293 294 296 294 297 300 302 299 300 296 296 295 294 297 294 294 291 291 291 292 290 288 290 290 290 289 288 290 291 295 294 294 294 296 289 290 291 290 288 286 286 286 287 290 288 286 287 288 288 288 290 289 289 286 283 285 284 286 287 289 290 289 289 288 287 289 290 288 287 287 287 289 290 289 288 287
294 290 290 288 298 297 294 297 295 297 294 297 290 294 292 294 296 295 300 295 297 298 294 295 294 293 292 294 292 292 293 289 289 290 290 290 288 287 289 288 290 292 293 293 293 291 287 287 288 287 286 288 286 285 287 291 288 289 287 286 289 287 287 286 286 284 288 285 281 288 290 286 289 290 292 291 290 290 291 290 289 288 288 288 288 288 288 286
290 291 295 296 292 288 290 291 296 295 298 298 292 295 293 292 293 290 296 297 297 298 294 292 294 296 295 294 292 286 288 287 288 286 290 288 288 288 289 290 288 290 291 290 292 293 288 287 289 288 287 290 287 288 288 289 290 290 290 290 288 288 286 284 286 289 287 285 283 288 289 287 290 291 292 292 292 291 292 289 290 290 289 288 287 286 286 285
292 289 291 295 289 289 291 293 295 295 294 296 291 293 291 292 291 294 294 292 294 293 296 286 290 293 294 293 290 286 287 285 284 288 287 287 288 287 287 289 290 290 289 290 291 290 290 288 289 289 288 289 288 288 287 288 287 287 289 290 291 289 287 287 287 289 288 287 290 289 288 289 292 292 292 291 293 294 292 291 289 289 288 287 286 287 287 286
287 288 288 291 289 287 289 292 294 293 289 294 289 290 292 292 291 293 292 293 289 292 295 290 289 291 292 292 290 287 288 291 289 286 289 288 288 288 288 291 288 287 289 288 289 289 290 287 289 287 286 286 286 284 285 285 287 287 289 290 291 290 288 287 287 288 288 287 288 285 286 287 293 294 292 289 288 289 288 287 290 290 289 288 288 288 288 288
291 290 293 288 285 286 286 289 289 287 286 287 286 289 290 292 292 294 291 294 292 289 293 290 291 290 290 291 291 290 293 291 290 291 291 291 288 291 290 288 291 286 286 286 287 288 290 286 286 286 284 283 280 284 282 283 283 284 286 288 289 287 285 286 285 289 287 286 287 287 285 286 290 292 292 289 288 289 290 290 289 289 289 289 289 289 289 289
292 292 291 291 286 289 285 286 286 287 285 289 289 288 288 289 291 293 287 290 290 294 295 294 293 291 289 289 289 292 293 292 291 293 296 296 297 293 293 291 292 289 287 287 289 288 287 286 283 285 282 283 276 282 281 281 282 281 283 286 288 289 289 290 290 291 291 291 286 284 285 291 292 292 291 288 288 289 290 290 290 290 289 289 289 290 290 290
Wind_Speed
4 4 3 3 3 2 3 3 4 4 5 5 6 6 6 7 8 8 9 9 9 10 11 12 12 12 12 12 11 11 10 2 1 1 1 2 2 5 8 6 4 3 3 2 2 3 2 3 3 4 2 2 3 0 2 1 3 3 0 0 2 3 2 4 4 3 2 2 3 1 2 2 3 1 2 3 3 3 6 6 2 5 7 9 5 4 4 6
3 2 3 2 2 3 3 3 4 4 5 5 6 6 7 7 7 8 9 9 9 10 11 11 12 12 13 12 11 10 6 2 2 4 4 3 5 6 4 3 4 4 4 2 2 2 1 3 3 2 1 1 2 2 2 2 3 1 2 1 2 2 3 1 2 3 2 3 2 1 1 2 2 4 2 5 1 1 7 2 1 6 9 7 9 9 9 9
2 2 2 1 2 2 2 3 3 3 4 5 5 5 6 6 6 7 8 9 9 9 10 11 11 12 13 12 11 8 4 1 1 4 1 4 5 4 3 4 2 3 4 2 1 1 1 3 2 1 3 2 4 2 1 3 3 2 3 1 2 2 3 2 1 3 2 1 1 1 2 2 1 2 2 4 9 5 2 4 1 2 3 8 8 9 9 9
2 2 2 2 2 1 2 2 2 3 3 4 4 4 4 6 6 6 7 8 9 10 10 11 12 12 12 12 11 5 2 2 3 1 2 4 5 1 4 4 3 4 5 6 2 4 4 6 4 2 2 3 2 1 0 3 3 2 2 1 3 2 3 5 5 2 2 2 2 1 1 3 2 1 3 3 8 1 4 6 6 6 5 5 6 8 8 9
4 3 2 2 1 1 1 1 2 2 3 3 4 4 4 5 5 6 7 8 9 10 11 11 12 13 13 12 10 2 4 5 2 1 3 5 5 3 5 2 2 1 2 7 7 5 3 3 2 3 2 2 1 1 3 2 4 3 3 3 4 3 3 5 4 2 2 0 2 2 4 2 2 2 3 4 4 5 4 7 6 5 5 6 7 7 7 10
4 3 3 1 1 1 0 1 1 1 3 4 4 4 5 5 5 6 7 8 9 10 11 11 12 13 13 13 3 2 2 2 2 1 4 4 1 5 3 4 3 7 7 3 2 2 3 3 1 1 2 1 1 1 3 1 2 2 3 1 2 1 4 3 3 3 4 3 4 4 1 1 2 4 1 4 3 4 4 4 5 5 5 4 5 7 10 11
5 4 4 2 2 2 1 2 2 2 2 3 4 4 5 6 6 6 8 8 9 10 11 12 12 13 14 9 3 1 1 3 2 1 4 3 3 5 5 6 3 4 3 5 3 3 2 3 1 3 2 2 2 1 2 1 2 2 1 3 3 4 5 2 1 4 5 4 4 1 2 5 2 5 2 2 5 6 5 5 5 5 5 5 8 10 9 9
6 6 3 3 3 3 2 2 2 3 3 3 4 5 5 5 6 7 8 9 9 10 11 12 11 11 12 1 1 1 1 3 3 1 4 2 4 4 4 4 1 2 3 1 5 4 4 4 3 3 1 2 3 3 2 2 2 2 2 3 1 2 5 2 3 5 5 7 3 2 5 4 4 1 4 4 4 5 5 4 4 4 6 7 9 9 8 8
7 6 4 3 4 3 3 2 2 3 4 4 4 5 5 6 6 8 8 9 10 10 10 11 11 11 5 3 2 4 3 2 2 3 1 2 2 2 2 4 1 4 3 2 3 3 5 2 3 5 1 4 3 3 2 3 3 3 0 1 2 4 2 4 5 8 7 2 4 5 6 2 3 3 4 4 4 4 4 5 4 4 8 8 8 8 8 8
8 8 8 7 6 7 8 2 3 3 3 4 4 5 5 6 7 8 9 9 9 10 9 9 11 10 3 2 1 4 0 1 1 1 1 2 3 4 3 2 5 6 4 2 2 5 4 3 2 6 5 6 3 1 1 4 2 1 1 2 4 3 4 2 5 2 3 3 5 5 5 3 2 3 3 4 4 4 4 6 6 6 8 8 7 7 8 9
9 10 11 8 7 9 7 3 4 4 3 4 4 5 5 6 7 8 9 9 9 9 9 6 9 6 0 1 4 6 2 2 1 1 1 1 3 3 1 2 1 4 2 2 2 1 2 5 3 4 1 1 6 3 2 2 2 2 2 3 6 5 6 6 5 6 2 3 4 6 1 2 2 2 3 4 3 3 4 6 6 6 6 6 6 7 6 7
10 10 9 10 9 8 6 4 6 4 3 4 5 5 5 6 7 8 9 9 9 8 7 4 6 3 1 0 6 3 2 2 2 2 2 1 4 2 2 1 1 2 4 4 3 2 1 4 6 2 0 5 2 3 2 3 1 1 2 7 3 5 7 3 2 2 2 2 2 3 4 5 5 5 4 4 1 4 4 5 5 6 5 4 3 4 4 4
10 10 8 6 8 8 5 2 5 5 4 4 5 5 5 6 7 8 8 8 7 5 6 5 4 2 1 4 4 3 2 2 3 4 5 5 6 4 3 2 2 1 2 3 4 3 2 5 4 4 2 1 3 2 5 2 1 1 2 3 10 4 5 3 1 0 3 2 1 3 6 5 5 5 3 4 3 4 4 3 4 4 4 3 3 3 5 5
9 7 5 5 5 10 7 4 2 5 5 5 5 5 6 6 8 8 7 6 7 3 3 5 2 2 2 5 2 2 1 1 2 5 4 1 3 4 3 4 3 3 3 5 5 3 5 1 5 8 2 1 2 3 5 2 1 4 1 2 5 5 1 3 2 3 4 1 2 4 6 2 7 6 4 4 1 6 3 3 3 3 3 3 3 3 4 5
9 9 10 9 9 7 6 5 3 4 5 6 5 5 5 8 8 7 5 3 1 4 1 3 2 2 3 2 3 2 3 1 3 2 1 2 6 5 4 4 8 7 5 5 4 1 1 5 7 4 3 1 5 5 1 1 1 1 4 4 2 3 2 3 4 1 4 3 0 5 6 3 8 6 4 4 1 4 4 3 3 3 3 3 2 3 3 4
10 10 8 9 7 7 9 8 4 2 5 6 7 6 7 10 5 3 3 2 4 1 0 2 2 2 1 6 2 3 2 4 4 3 1 2 1 3 4 6 4 4 2 6 2 2 3 3 4 2 4 2 5 3 1 2 3 1 5 6 5 1 5 6 3 1 2 1 1 3 4 2 6 5 3 3 1 3 4 4 3 3 3 2 3 2 3 3
11 10 11 10 8 10 8 5 5 2 4 6 8 8 8 2 2 3 2 2 1 1 2 1 2 1 6 2 4 4 4 2 2 2 2 2 1 9 9 6 4 7 7 5 2 2 5 2 1 2 2 2 2 4 3 5 6 5 2 5 1 5 2 3 4 2 3 2 4 1 5 7 5 5 1 2 1 2 3 4 3 2 2 3 2 2 3 3
12 12 12 10 9 7 8 8 7 1 7 8 7 6 2 1 5 1 3 2 1 1 1 1 3 2 7 3 6 3 3 3 2 3 3 2 1 5 3 4 1 7 7 7 3 2 3 2 2 3 3 3 6 7 6 9 6 3 4 4 5 3 7 8 3 3 2 2 4 1 7 12 4 7 3 1 0 2 2 3 3 2 2 2 2 2 3 4
12 12 12 12 10 9 10 9 6 4 7 7 6 2 4 1 1 1 2 0 2 2 3 5 5 8 4 3 4 4 1 2 2 2 5 7 2 3 6 4 6 10 6 5 3 2 2 3 0 3 9 8 10 12 11 5 3 3 5 4 2 5 4 5 2 2 2 5 6 8 10 10 10 7 5 4 1 2 3 3 2 2 2 2 2 2 3 3
13 13 13 11 10 10 10 11 7 5 5 6 2 1 2 2 2 2 1 2 7 6 2 3 8 5 2 1 3 2 1 3 3 2 3 1 6 7 5 2 3 2 6 7 5 5 1 8 8 9 12 10 11 14 11 3 3 6 2 2 6 6 9 4 1 3 0 3 10 11 11 12 11 8 6 4 4 3 3 3 2 2 2 1 2 2 2 3
13 12 12 12 11 10 11 11 9 6 5 3 3 2 3 5 4 5 5 8 10 2 4 3 8 2 1 4 3 8 6 2 4 4 3 2 2 11 5 7 7 6 5 2 5 2 3 8 12 14 0 3 9 9 3 2 2 5 5 5 6 5 9 3 1 4 2 3 4 2 6 11 13 5 4 4 5 5 4 3 3 3 2 2 2 2 2 2
13 12 11 12 12 13 12 9 8 7 3 4 4 4 3 4 3 2 2 6 6 13 6 3 4 6 3 2 1 2 2 3 3 5 2 4 9 10 7 9 9 10 5 5 4 4 7 12 12 5 7 6 4 5 5 8 7 4 7 4 5 8 6 9 2 3 2 4 9 2 8 10 10 3 3 2 3 2 1 1 2 2 3 2 2 2 2 2
13 13 10 11 13 13 11 8 6 7 4 5 7 5 4 1 2 1 2 2 7 2 8 7 6 12 6 1 3 2 7 8 8 10 10 6 7 6 10 8 10 4 7 11 10 7 7 10 13 7 6 6 4 4 6 5 4 6 5 6 8 1 1 5 4 2 3 3 2 0 7 11 8 5 3 3 3 4 3 3 3 1 3 3 2 1 2 3
14 13 13 14 14 12 11 10 5 4 6 8 8 10 1 1 1 4 1 5 6 3 7 5 10 4 12 9 8 11 11 5 3 11 4 9 11 6 7 12 8 7 11 15 16 12 9 4 3 10 8 8 7 5 7 6 8 7 8 8 9 7 7 9 2 0 3 3 1 5 9 11 12 6 4 4 4 4 5 4 4 3 2 2 2 2 0 2
14 13 15 16 15 13 12 10 4 5 4 7 11 12 7 2 2 4 2 4 4 5 3 2 4 6 4 5 5 12 8 2 6 2 10 12 9 6 6 2 4 10 11 13 9 9 6 4 5 9 8 8 7 6 9 8 9 5 9 12 12 6 7 6 1 4 5 5 5 3 6 5 3 3 3 5 4 5 4 5 5 5 5 5 5 3 3 2
13 13 11 14 15 15 13 5 6 7 8 10 4 5 10 6 2 2 2 1 9 4 4 7 9 4 6 6 6 6 7 9 2 1 7 3 2 3 5 6 3 9 11 8 9 5 2 5 6 8 9 8 8 8 7 10 7 5 4 11 13 11 6 3 4 4 5 5 2 3 6 4 3 4 6 5 6 6 4 6 6 6 6 5 5 5 4 4
14 13 14 15 17 16 8 5 4 9 6 9 9 5 1 5 3 3 2 2 10 8 9 2 2 1 1 3 9 7 7 6 2 6 4 2 8 2 7 7 3 3 3 4 2 7 5 5 5 3 6 7 5 7 7 11 6 7 3 3 5 6 8 9 8 8 4 3 1 2 3 7 7 5 5 3 5 6 7 7 8 7 7 7 6 6 5 4
16 15 15 17 19 17 2 5 9 10 7 1 2 4 5 4 5 2 2 3 6 6 5 4 1 3 1 3 2 6 4 5 6 5 3 1 1 2 5 8 11 10 5 7 11 2 8 7 8 8 7 6 10 7 8 12 8 1 2 2 5 7 6 6 6 5 1 2 6 7 4 4 6 2 4 4 4 8 10 9 9 8 8 7 7 6 6 5
18 17 17 17 18 17 5 5 7 10 4 2 3 6 7 6 3 1 3 7 1 3 3 6 3 2 5 3 4 3 3 3 1 4 3 3 6 1 8 5 4 7 1 6 10 3 2 2 7 8 8 9 3 4 5 11 10 2 5 7 7 6 5 4 3 3 2 4 8 8 9 6 9 4 3 4 6 8 6 10 10 9 9 7 7 6 6 5
19 20 20 19 14 12 8 5 7 2 4 3 5 7 9 6 3 4 4 9 3 4 3 3 5 7 8 13 6 3 4 2 2 3 2 5 3 2 5 2 4 7 6 0 3 4 1 0 2 2 7 1 6 5 4 4 4 10 6 8 6 5 4 3 2 2 1 5 9 2 9 8 6 4 8 7 3 1 5 7 7 8 7 7 6 7 6 6
21 22 21 21 13 9 7 11 11 3 4 5 6 10 8 1 4 6 10 8 4 3 2 4 4 4 14 15 9 2 3 1 4 7 6 3 4 3 6 5 3 3 1 1 5 2 2 2 3 1 3 4 5 7 6 2 2 6 4 5 7 3 3 2 1 2 4 6 4 2 2 3 8 4 5 1 3 1 4 9 12 12 11 10 9 8 7 7
22 22 23 18 9 9 14 10 11 7 5 6 7 9 8 6 3 9 11 9 5 7 9 7 1 8 14 2 4 9 9 3 6 8 9 10 10 11 13 12 10 6 6 10 8 5 4 7 2 2 3 4 6 7 4 3 2 3 5 7 7 4 2 4 3 5 9 5 2 3 3 4 12 9 2 1 3 3 2 1 10 12 12 11 10 10 8 7
22 22 24 17 13 10 9 4 10 9 7 7 6 6 7 8 13 16 10 8 4 6 3 4 9 10 10 7 5 4 4 7 5 3 3 0 7 9 1 2 7 1 5 8 8 4 4 4 3 4 3 6 9 9 6 3 8 6 10 9 8 5 5 5 4 2 4 1 2 4 2 5 3 7 5 5 5 3 1 1 2 10 11 11 11 10 8 7
23 21 15 17 16 13 10 8 10 11 9 6 7 7 5 8 19 15 12 10 4 4 6 3 7 6 12 9 7 12 6 1 10 6 6 7 7 9 9 8 5 5 4 3 9 9 6 4 9 13 7 9 12 10 8 6 12 11 1 8 5 4 3 6 5 6 1 2 3 1 2 3 6 3 2 2 1 1 0 0 1 4 7 9 9 8 8 8
24 20 17 10 11 9 12 11 14 16 9 8 9 12 16 17 14 12 12 9 2 2 4 6 11 10 7 3 2 9 1 5 6 8 6 9 10 10 12 14 8 4 3 6 4 2 10 4 4 2 3 6 13 1 4 8 4 2 1 4 1 4 1 3 2 2 1 1 3 3 4 1 4 2 1 1 0 1 2 2 4 6 6 8 8 9 9 9
17 13 13 8 12 12 14 11 13 16 12 9 11 13 18 16 7 5 6 7 4 8 9 7 5 8 3 6 1 11 5 1 9 5 4 8 1 9 5 6 11 16 11 10 6 5 3 6 4 1 1 4 4 4 1 3 7 8 5 7 5 3 3 5 2 4 1 1 8 5 4 5 1 2 4 4 2 4 3 5 6 8 9 10 10 10 10 10
10 9 7 11 12 13 14 12 13 13 12 8 10 13 13 3 1 1 3 8 6 18 11 10 9 9 9 9 8 11 7 4 8 9 7 6 6 9 5 9 5 11 13 6 3 3 4 3 1 4 6 1 1 2 3 3 1 10 7 7 4 1 3 2 4 2 1 6 4 4 10 7 7 6 5 5 5 7 7 6 7 8 10 12 11 11 12 12
9 7 13 16 19 16 17 15 14 10 10 12 13 17 4 9 2 1 2 4 5 8 7 12 3 11 8 9 10 11 9 10 10 8 6 12 5 12 10 5 10 15 17 3 3 4 4 2 3 2 2 2 0 4 4 3 4 2 1 3 7 4 5 3 0 5 4 5 5 6 7 7 10 7 4 7 9 11 10 8 9 11 12 14 14 13 12 10
7 5 6 16 11 18 15 16 16 14 10 11 11 14 11 8 3 3 4 1 1 7 11 10 6 8 4 10 4 6 11 10 11 11 7 7 7 8 15 6 8 12 13 8 5 2 1 5 3 0 3 4 2 6 10 7 1 2 2 4 3 3 2 6 4 1 0 5 0 2 5 6 8 8 12 12 14 11 12 10 13 15 17 15 14 15 14 14
6 3 8 9 18 16 16 16 12 13 12 15 15 12 3 10 6 3 4 6 4 6 7 8 6 5 7 5 10 8 10 8 12 10 9 4 9 3 12 2 5 8 8 12 4 1 6 2 4 4 1 4 6 7 9 12 10 5 7 7 3 1 2 3 1 3 3 4 4 7 6 2 6 4 9 11 10 12 15 14 12 13 15 16 16 15 15 15
4 2 2 9 19 17 15 13 12 15 16 12 12 12 9 8 4 4 4 2 1 3 2 4 6 10 6 6 5 3 8 9 6 7 7 5 11 3 2 3 6 9 6 5 5 5 3 4 6 6 5 9 3 2 4 5 6 9 12 11 12 8 5 5 7 4 1 3 5 3 9 1 3 2 1 3 4 3 10 9 12 13 15 16 15 16 16 15
6 7 3 7 16 21 15 15 8 9 8 12 17 15 9 6 3 6 5 3 2 2 3 0 3 2 3 6 4 7 8 8 8 4 6 7 3 2 2 2 3 12 12 9 11 3 1 2 3 7 6 6 2 2 2 4 2 3 3 6 8 7 5 5 10 4 1 3 3 1 4 4 3 2 2 2 1 2 4 4 5 7 12 14 14 16 15 12
8 9 5 3 9 23 15 15 12 11 11 8 8 4 6 4 9 5 9 5 6 3 1 2 5 5 3 4 4 5 9 3 8 8 3 3 2 2 1 1 2 5 2 3 5 2 3 3 5 2 4 2 1 1 1 1 2 1 2 1 1 8 7 6 3 2 5 3 3 2 4 3 2 1 2 1 1 1 2 4 6 3 5 7 10 10 10 9
4 2 2 2 4 12 17 16 14 14 13 3 9 7 7 6 11 10 13 12 8 5 6 3 1 4 2 3 3 8 9 3 4 6 2 3 4 2 1 1 1 2 3 4 5 10 6 3 5 5 3 1 1 1 1 1 0 3 3 4 6 3 2 2 4 1 2 8 4 4 14 2 1 1 1 0 0 1 1 2 5 6 5 6 8 7 5 6
3 1 1 2 1 5 16 9 15 14 13 14 12 14 9 6 5 12 13 12 5 3 4 5 5 4 2 2 4 3 6 5 2 3 1 2 2 2 3 3 3 3 4 1 1 4 4 4 10 12 13 11 10 10 10 9 9 3 1 2 7 10 9 4 5 4 7 3 11 10 13 0 1 1 2 1 1 1 2 3 4 4 3 6 6 7 7 7
2 2 2 2 3 2 4 4 2 11 12 11 11 12 14 11 4 5 11 9 9 2 1 2 1 3 4 5 2 4 5 1 5 4 6 4 2 1 2 3 2 3 3 2 2 5 2 1 5 5 5 6 1 3 3 7 5 6 6 10 7 9 11 8 1 5 12 3 8 13 7 7 7 4 4 3 2 3 3 4 6 7 6 5 7 8 8 8
1 3 3 2 1 5 2 2 3 6 13 14 9 7 14 17 6 1 8 6 5 9 4 4 4 7 4 10 9 8 7 4 4 8 9 6 1 1 0 1 1 3 2 2 4 4 2 1 4 5 5 1 2 3 3 3 7 7 7 9 10 12 10 11 11 8 5 2 14 8 8 11 11 7 8 8 4 4 4 4 6 5 7 7 7 6 7 10
2 2 2 2 1 5 9 9 5 7 7 15 7 5 13 15 11 8 5 4 6 7 8 3 5 9 10 14 10 7 7 5 6 8 7 1 5 0 2 3 2 4 3 2 3 4 4 3 3 6 7 4 1 3 5 4 2 4 9 9 11 12 10 14 13 9 6 11 15 2 9 10 11 8 7 8 8 7 6 5 5 4 5 6 8 10 10 9
1 2 1 3 3 2 5 2 1 4 7 14 4 10 11 15 16 12 6 6 7 5 11 7 11 9 7 7 7 4 9 9 7 3 5 5 6 4 3 2 1 3 2 2 2 0 3 5 3 7 7 6 5 6 4 6 3 2 7 11 11 11 14 12 9 12 15 14 14 5 7 11 10 5 10 5 4 3 2 3 3 6 7 8 8 9 10 11
3 3 1 2 4 2 0 1 1 1 3 4 8 6 11 16 17 8 1 10 8 8 5 7 9 9 7 9 7 7 9 3 5 6 5 7 4 2 5 3 5 3 2 3 3 2 4 2 6 3 3 4 3 2 2 2 5 11 12 15 16 7 6 10 13 16 13 13 12 4 7 17 3 8 7 3 3 4 4 4 6 4 6 9 9 10 10 12
2 2 2 6 2 1 1 2 4 4 3 2 4 3 4 9 14 11 3 1 8 10 11 13 10 8 7 11 12 10 11 6 8 10 8 10 8 6 5 3 7 7 2 2 1 1 3 2 3 2 4 3 2 6 3 3 1 9 17 21 13 9 12 14 14 14 10 13 11 9 12 14 4 8 4 3 3 6 8 7 4 5 6 8 9 9 10 10
3 1 1 2 2 5 4 1 0 4 5 4 4 3 4 3 1 6 3 3 3 1 7 7 8 9 7 12 16 12 10 10 8 6 10 9 6 5 3 5 9 9 8 6 1 6 5 4 4 4 6 5 2 4 7 5 2 8 19 12 11 16 16 11 12 10 13 12 11 13 12 10 5 8 8 7 9 8 7 7 7 5 6 8 9 9 8 8
Wind_Direction
130 117 100 83 80 72 60 48 31 20 15 15 10 9 9 12 7 3 355 354 354 347 339 339 336 331 330 330 335 338 329 299 339 25 90 59 330 303 292 265 238 182 193 215 159 216 100 46 50 343 123 27 3 256 353 51 357 254 97 32 171 60 198 147 191 170 32 119 115 102 24 317 312 340 101 238 230 227 283 282 1 119 85 79 81 22 5 359
129 129 109 99 73 54 26 33 37 16 15 11 10 2 2 5 3 356 353 345 347 341 333 334 330 327 323 328 333 340 331 306 96 60 42 28 334 310 275 217 170 183 217 200 107 110 145 88 67 25 110 99 282 49 256 79 304 15 129 281 33 189 51 204 45 144 177 82 32 78 191 281 335 318 46 306 226 290 310 150 54 115 128 105 49 28 23 18
152 134 131 110 73 45 30 11 19 18 10 5 7 4 355 354 353 352 346 341 336 335 329 328 327 323 323 325 331 345 312 39 221 60 67 26 330 329 165 152 187 205 246 184 198 99 59 104 128 201 32 112 12 78 309 48 307 64 273 81 70 131 85 231 194 145 253 31 293 288 137 252 353 281 13 292 311 262 300 348 110 113 12 13 20 20 14 23
182 173 153 133 97 62 23 11 1 4 1 3 348 356 348 345 343 344 343 338 333 329 327 326 321 323 320 323 333 326 264 218 152 148 110 347 333 198 159 135 124 121 95 61 113 99 100 111 77 21 108 64 85 271 272 32 290 100 249 82 96 134 213 171 210 227 159 218 295 294 158 251 129 226 293 333 305 288 101 61 352 330 356 14 22 16 11 23
183 172 164 167 131 101 26 347 3 342 344 343 349 335 345 339 340 339 342 333 333 328 325 323 323 321 322 323 333 235 315 262 121 252 57 341 300 168 154 138 177 215 107 137 112 84 97 79 117 50 352 103 79 156 50 56 10 181 14 46 111 129 256 128 181 123 160 64 234 159 266 342 93 216 229 260 280 316 15 353 359 38 41 29 13 9 25 30
188 192 180 196 198 126 325 337 341 339 336 336 340 336 329 339 338 335 333 336 328 328 324 323 322 324 324 324 321 214 279 334 151 153 360 310 259 137 112 103 119 118 128 97 98 105 161 83 184 130 116 151 64 315 79 354 342 248 132 201 217 153 289 110 170 176 184 166 197 247 256 44 233 276 149 240 293 47 43 36 45 55 47 39 32 27 31 27
227 211 211 212 235 244 281 319 322 321 333 333 327 330 325 335 334 333 329 331 331 325 326 323 324 328 330 309 247 286 223 298 196 86 17 327 128 112 115 112 144 129 131 117 131 163 94 125 238 116 121 118 138 99 100 152 222 283 21 144 174 189 236 127 222 133 204 199 239 105 92 263 202 285 127 149 51 73 67 58 68 71 63 47 45 37 37 30
227 241 206 192 255 248 267 299 316 315 320 321 326 319 326 328 333 330 331 326 328 324 322 324 327 330 347 334 272 170 346 253 85 30 326 23 101 107 116 74 71 131 166 180 162 147 157 161 170 160 147 305 116 185 129 208 186 219 243 152 123 215 240 249 235 218 218 238 243 189 243 242 204 282 174 86 77 90 81 77 78 75 67 55 49 40 35 32
223 233 185 159 251 229 236 249 291 307 310 312 317 313 325 328 325 331 325 323 323 323 321 327 330 337 314 280 157 302 239 58 26 38 334 129 99 57 286 162 306 162 108 89 338 163 193 149 135 214 274 180 170 159 175 258 196 210 24 151 159 242 260 247 256 248 238 235 171 192 239 174 214 147 104 73 84 110 104 77 57 73 57 47 44 39 34 30
218 222 212 196 202 222 224 299 306 302 306 307 305 310 313 322 322 325 324 320 321 321 322 337 347 326 331 179 104 270 319 140 77 50 23 140 122 114 40 67 152 135 160 64 135 155 208 166 215 164 104 77 177 96 92 225 18 234 145 243 266 300 320 253 243 256 109 258 172 250 263 132 100 248 153 82 102 136 117 72 52 55 57 46 42 34 26 26
216 229 229 214 208 217 220 296 314 297 302 302 303 305 310 310 321 319 324 318 320 316 324 348 351 331 305 154 244 258 117 191 72 119 163 219 137 159 141 149 141 146 96 103 206 309 48 140 123 120 274 82 158 130 245 66 94 85 315 259 241 242 240 245 256 274 272 225 193 228 172 132 135 264 61 64 95 189 119 80 67 63 60 55 44 39 27 28
220 234 236 219 222 231 221 290 295 297 285 297 301 301 298 307 311 321 319 320 310 319 324 354 2 345 305 42 231 249 11 28 141 135 121 125 66 20 27 23 327 155 191 188 190 187 286 140 166 150 312 164 178 131 162 139 336 89 279 297 288 272 272 104 294 71 289 139 188 171 146 169 173 167 87 47 125 162 119 99 85 75 74 69 64 62 49 38
220 229 235 235 223 218 200 243 296 288 290 297 297 299 299 305 312 316 318 317 318 323 340 359 344 310 318 251 236 32 338 115 128 114 85 92 107 75 53 30 46 30 329 244 163 148 159 150 200 107 71 209 118 303 112 202 57 220 158 339 298 271 257 85 162 160 270 112 115 197 262 138 156 123 58 25 192 194 163 98 82 82 79 71 66 65 57 39
220 235 223 210 198 206 205 177 269 294 288 292 299 297 303 310 311 313 315 305 319 321 48 17 2 281 223 259 51 338 57 117 162 122 107 198 120 52 60 59 60 49 11 80 67 105 125 251 85 93 67 358 134 171 152 101 234 282 43 232 282 307 243 144 23 331 278 82 238 235 275 150 153 157 35 11 261 213 186 96 87 82 82 78 71 67 65 53
214 212 227 227 229 213 171 197 162 296 294 290 291 293 301 312 314 313 309 316 354 23 56 293 278 207 207 267 91 56 158 227 190 123 70 199 124 101 85 90 58 49 60 70 108 77 150 134 125 154 106 322 116 176 148 253 45 358 278 234 150 245 140 137 95 355 269 98 200 238 253 284 159 151 23 10 5 183 138 117 90 78 71 71 72 75 73 63
213 217 223 225 226 182 178 200 144 256 296 293 275 270 292 303 316 320 360 332 10 252 281 244 91 319 263 252 130 129 205 199 185 52 80 299 284 135 118 99 118 83 104 62 58 129 52 70 72 31 120 120 187 196 202 257 209 152 226 267 255 201 285 297 105 5 356 357 75 259 300 98 173 136 56 35 136 193 145 125 106 92 78 68 64 58 56 72
216 215 224 228 204 193 196 187 157 137 303 265 272 282 286 323 1 13 55 65 10 194 259 126 129 173 260 72 118 219 192 141 17 157 110 46 278 134 131 109 88 91 88 111 65 138 19 87 278 202 5 229 161 170 226 243 254 216 147 251 306 255 287 259 117 118 20 305 195 147 255 267 99 153 87 86 14 172 152 132 119 97 72 70 65 53 56 52
215 220 223 218 222 207 183 156 157 205 267 268 273 314 311 100 359 220 147 127 92 89 105 97 220 272 235 97 227 175 32 128 144 114 38 358 155 125 114 120 89 121 125 107 20 194 326 144 279 226 162 160 180 186 200 241 233 188 178 220 236 208 236 272 277 86 276 148 263 184 245 266 202 159 139 58 58 224 137 127 121 112 106 92 86 73 57 54
216 222 222 215 214 197 169 160 164 199 242 264 296 69 47 21 33 300 60 275 178 147 208 180 176 204 269 174 77 86 86 56 104 222 138 135 79 93 84 74 130 142 154 186 147 159 117 100 231 190 226 189 195 201 209 230 57 247 187 230 274 258 209 238 213 79 307 255 253 240 255 264 264 162 146 140 146 183 127 128 129 128 114 100 92 73 69 55
217 222 224 222 213 186 170 168 167 218 220 265 222 201 205 188 174 169 165 252 237 230 32 160 193 20 58 196 146 33 229 216 155 27 131 306 153 127 72 145 81 39 150 201 131 187 351 194 193 208 223 206 195 206 226 69 90 88 127 200 250 258 267 259 167 116 185 280 252 257 265 266 265 264 121 140 148 153 163 164 158 143 127 117 86 93 72 62
218 221 222 217 206 172 168 163 175 215 223 247 215 207 207 187 178 240 172 230 231 273 219 218 214 229 344 83 116 163 138 153 8 147 153 129 274 151 164 146 170 190 189 36 132 83 226 219 223 226 78 142 206 207 136 133 128 231 245 238 244 201 261 282 74 110 122 252 278 175 259 257 260 243 106 140 185 186 172 176 171 144 139 121 125 108 85 71
219 221 224 220 172 165 168 165 186 213 194 225 200 216 302 278 347 338 347 263 191 230 241 221 31 259 144 208 176 287 333 131 162 166 167 198 173 204 159 196 174 206 116 126 121 167 203 221 232 202 81 81 68 178 200 220 223 193 245 234 256 251 260 276 263 123 195 174 265 282 263 267 263 143 118 143 172 123 128 243 145 167 163 157 147 130 117 128
215 216 218 182 167 168 161 159 195 209 203 201 209 221 244 283 305 283 256 267 267 135 211 192 219 228 214 146 191 180 204 193 194 180 184 200 144 254 148 185 198 139 145 175 193 188 230 233 234 109 136 127 83 156 179 199 236 225 202 225 236 226 225 269 114 100 130 238 328 64 287 275 260 126 141 123 161 132 116 136 135 185 171 160 153 154 157 141
212 207 187 174 173 167 147 156 211 226 228 214 218 213 110 31 3 324 241 258 301 217 198 205 213 187 204 181 177 175 199 217 162 188 158 180 172 147 173 193 165 153 191 192 210 205 213 53 1 156 169 186 182 161 171 193 226 211 225 233 249 225 224 240 298 161 146 223 243 269 274 268 248 212 184 140 141 146 154 158 165 153 147 140 144 164 206 144
201 202 193 180 169 152 151 138 203 226 198 222 241 237 229 183 16 0 300 287 217 257 72 289 171 229 180 48 133 185 213 306 226 87 169 192 141 141 204 92 146 209 199 194 223 238 232 72 125 145 167 184 175 181 200 207 243 210 212 227 241 244 248 214 350 300 267 254 163 235 281 256 121 219 228 142 178 190 167 197 187 170 167 179 177 162 154 142
190 185 183 168 158 151 137 157 220 199 196 215 223 217 225 218 243 321 284 73 274 157 65 227 146 226 121 157 133 166 77 231 91 137 151 221 18 177 101 187 206 222 176 171 211 249 258 123 163 149 165 182 203 218 199 199 240 236 235 203 230 242 238 202 178 166 249 262 79 286 244 277 150 223 189 175 195 192 171 217 198 186 184 185 180 171 167 162
188 180 175 168 156 139 146 223 153 150 195 250 232 192 174 180 117 243 225 268 280 164 170 32 216 178 342 124 144 121 210 199 122 97 147 355 194 344 208 171 118 22 96 130 18 226 153 150 160 175 160 169 185 224 193 187 215 239 79 159 198 203 205 214 196 209 268 42 126 180 269 274 282 275 98 155 203 207 211 213 207 201 190 188 179 174 168 164
190 183 180 172 161 159 141 125 154 185 203 88 331 146 120 127 130 238 223 292 262 92 135 206 222 353 311 141 286 197 1 86 148 195 1 313 297 128 250 191 191 168 165 164 226 57 180 161 181 179 195 185 215 227 126 183 200 319 68 184 165 192 194 161 190 210 265 328 260 195 153 269 254 232 110 166 224 223 225 211 208 200 193 189 180 173 168 161
188 183 184 179 167 172 153 172 190 209 230 89 99 127 115 138 222 157 124 228 147 90 349 107 269 82 81 144 130 74 159 353 331 63 296 55 17 271 209 189 180 128 96 218 238 128 299 211 201 186 174 210 146 27 163 169 213 111 120 91 87 84 83 161 188 183 154 226 247 221 172 246 270 205 203 155 249 253 208 202 204 191 189 188 181 170 164 160
189 184 185 180 171 178 192 213 220 207 88 119 129 127 126 128 149 175 110 246 121 190 95 98 173 171 157 153 189 80 172 57 45 133 83 167 122 47 26 339 132 146 189 359 303 37 18 226 351 182 210 114 101 55 20 14 38 127 164 109 99 86 102 100 69 148 164 238 238 199 175 222 281 171 219 208 225 359 145 168 165 169 180 185 179 170 168 171
191 186 185 176 184 176 157 214 205 147 132 123 169 137 137 116 181 165 217 219 30 97 81 156 150 134 156 158 189 176 66 91 151 158 136 150 139 73 151 101 81 116 67 242 245 130 140 86 169 238 52 107 104 89 42 52 150 164 159 151 130 98 136 153 124 207 229 248 107 40 231 213 221 233 232 121 88 174 173 179 174 178 186 181 175 172 172 170
188 184 182 183 168 142 189 200 175 129 147 154 166 151 167 167 282 198 226 72 258 169 172 154 119 179 179 24 39 164 161 108 170 180 165 176 168 176 191 194 153 172 225 201 219 92 233 205 108 77 275 147 146 104 78 95 217 217 163 163 187 171 166 201 170 216 208 237 105 55 157 192 235 248 52 52 156 155 210 99 180 176 178 174 171 170 169 171
185 185 182 187 163 183 194 115 140 143 133 160 169 172 174 175 215 217 226 144 251 122 178 78 160 178 170 151 174 123 3 176 159 176 90 359 180 205 216 268 183 176 235 178 195 155 234 98 180 167 133 239 177 170 144 172 192 201 188 180 187 190 193 240 189 333 312 77 26 65 101 256 11 262 264 198 127 81 89 32 134 175 173 170 167 166 169 177
189 181 185 189 186 189 176 133 133 132 136 155 163 167 214 205 228 209 199 198 220 12 78 116 109 92 163 181 178 160 158 269 165 172 194 163 193 197 205 227 203 204 76 122 197 190 222 216 208 159 220 149 199 215 175 154 165 201 298 196 225 205 173 210 182 223 258 79 107 306 177 230 167 198 26 23 44 42 52 4 109 152 156 158 158 159 168 179
190 187 193 178 192 184 162 167 157 151 146 161 180 183 190 217 232 201 203 181 92 86 75 122 131 144 189 290 133 202 307 167 193 136 188 163 200 202 190 199 201 203 133 171 214 152 223 271 46 24 350 145 189 27 87 100 113 120 292 5 319 235 16 275 28 338 86 158 176 179 235 225 225 99 82 340 229 186 124 168 149 167 155 149 155 174 181 187
191 201 184 184 191 180 168 171 158 147 152 182 195 197 203 205 212 155 227 123 102 147 128 100 104 170 180 189 42 200 228 252 173 169 198 211 271 203 182 184 185 192 174 198 139 187 80 227 66 128 96 187 162 131 140 209 202 167 145 210 198 11 109 109 127 75 45 320 255 148 241 233 342 192 161 185 184 191 157 161 167 169 168 170 181 184 190 191
189 175 187 193 197 170 169 165 158 151 156 194 210 219 226 254 143 197 326 182 180 129 156 157 205 172 179 201 190 196 183 97 167 182 202 149 265 210 192 228 185 185 218 178 186 253 172 132 67 157 178 295 6 275 84 49 31 109 213 200 78 228 339 211 254 101 219 253 268 149 215 210 143 238 126 175 203 200 186 171 175 171 171 183 191 192 193 194
189 194 210 199 194 165 166 163 153 159 167 191 217 228 57 228 187 29 63 93 106 167 167 204 180 179 199 174 198 174 184 194 169 184 203 166 256 154 177 197 194 196 201 226 228 182 184 170 133 337 47 85 322 206 101 41 346 256 168 111 179 196 205 157 279 243 202 239 259 202 228 247 200 205 135 204 203 201 183 166 170 182 186 193 195 196 193 193
180 172 231 213 146 167 164 162 166 161 173 204 210 235 223 236 58 169 206 17 172 163 206 211 181 210 163 191 149 159 165 194 150 192 164 199 225 177 189 164 194 202 192 151 200 125 269 213 128 142 150 134 196 195 193 170 135 71 127 158 4 312 250 160 202 331 161 265 88 248 126 237 192 220 179 196 202 181 158 170 196 195 191 190 193 191 190 194
154 183 252 131 156 157 164 166 178 175 181 200 205 223 65 221 197 191 217 187 203 193 229 196 221 164 194 207 150 165 202 205 164 189 205 168 204 114 194 129 187 177 191 186 184 147 180 343 210 111 306 155 181 204 211 166 168 157 181 182 177 216 351 336 8 200 221 246 234 288 260 209 190 209 189 191 188 171 170 187 189 194 195 197 194 186 188 193
179 198 267 156 151 155 156 170 188 190 189 208 207 217 205 213 142 217 188 280 208 10 183 243 178 200 158 133 221 147 165 188 181 183 201 190 202 196 178 176 148 153 136 168 210 187 161 181 194 132 167 207 211 73 356 177 187 181 176 189 184 156 170 192 228 89 238 223 247 192 259 140 171 61 309 35 14 163 194 183 182 192 195 193 193 195 193 192
155 223 198 163 151 147 156 189 198 193 211 198 203 197 199 144 198 189 157 187 318 206 54 163 320 127 141 184 139 168 158 179 184 183 211 197 144 4 80 343 331 151 154 181 194 163 224 103 116 179 192 187 46 36 300 1 5 352 263 200 189 197 173 191 239 191 72 246 38 323 333 265 73 12 14 7 17 317 233 222 218 202 200 198 198 196 194 194
187 217 22 220 184 157 176 199 191 195 209 218 70 162 169 178 206 175 189 186 200 172 146 194 210 168 260 153 176 152 159 169 173 200 116 161 205 205 152 339 230 136 42 72 61 203 122 157 156 101 71 52 53 222 115 351 53 274 272 35 179 211 200 231 254 115 209 137 188 203 251 266 118 46 342 357 327 314 301 239 242 246 206 205 200 195 193 179
180 124 134 222 211 190 183 195 194 202 211 143 179 199 183 192 179 181 205 194 192 161 201 186 316 244 197 137 143 170 171 134 216 149 240 216 158 116 15 326 163 138 161 215 180 173 176 203 172 148 165 133 196 122 122 27 196 224 199 174 212 189 86 79 98 49 261 203 186 188 252 176 179 19 235 355 352 7 264 223 219 213 205 201 195 192 167 162
103 15 57 269 105 233 204 196 197 196 201 205 188 196 182 203 220 204 193 198 171 165 152 220 197 148 187 174 174 135 198 187 127 220 73 212 179 46 353 54 319 141 231 307 246 179 213 145 172 185 190 191 195 199 201 194 200 172 172 156 210 187 149 138 214 171 238 170 163 221 246 181 345 280 276 244 271 254 163 201 190 219 200 181 177 163 157 166
159 197 172 199 221 280 303 8 233 189 193 198 203 203 196 205 199 199 178 203 175 150 132 121 21 133 173 147 143 173 168 355 138 190 160 188 164 19 347 340 33 205 192 148 68 85 166 11 235 236 210 210 143 68 0 88 89 191 204 181 192 212 196 198 214 197 217 147 206 225 238 267 223 158 242 244 209 235 203 183 197 181 188 200 184 176 167 168
70 147 151 209 85 246 284 260 253 188 200 183 209 164 200 205 169 156 188 207 200 176 148 158 165 169 220 187 190 186 165 95 52 139 187 153 54 87 358 116 137 77 176 101 351 86 67 205 242 265 277 296 119 114 184 123 171 201 165 210 202 190 180 195 203 216 112 149 250 225 190 230 251 156 200 206 187 225 213 186 199 193 188 182 177 157 158 158
158 256 107 290 175 195 211 245 221 238 233 186 200 167 198 195 184 193 165 230 149 174 165 313 206 200 186 187 149 163 155 129 142 167 175 153 111 212 63 352 61 324 349 54 337 117 150 210 199 159 257 256 66 107 150 146 207 181 202 199 195 200 184 198 215 213 157 219 243 246 180 224 246 190 195 202 186 195 188 200 199 170 144 143 154 168 177 184
89 37 143 336 168 284 215 355 246 217 233 193 177 179 189 193 200 196 160 153 166 196 187 177 198 186 157 122 140 141 157 149 200 158 171 175 167 149 138 87 274 34 46 85 81 357 141 225 150 179 228 220 201 148 175 179 166 248 227 223 211 186 198 195 204 214 207 227 246 243 195 238 238 166 198 205 157 139 118 114 154 176 172 163 167 181 192 192
200 151 192 60 25 78 308 242 180 109 175 210 186 211 192 191 197 166 166 167 173 198 152 177 179 181 172 159 154 162 187 165 137 159 201 153 195 188 185 199 139 8 2 152 147 284 179 209 112 160 215 232 143 84 69 339 221 242 247 243 239 207 187 192 213 228 224 243 241 88 245 259 226 152 190 93 113 94 105 182 192 165 151 172 183 196 202 204
73 34 136 128 150 210 41 166 141 145 160 297 153 189 185 207 201 171 172 165 171 168 178 187 155 162 176 180 186 190 185 180 157 175 177 172 185 204 158 230 142 144 155 126 133 100 176 197 68 141 204 230 137 173 143 95 80 239 254 246 223 195 215 204 217 221 210 221 229 229 243 250 146 160 121 128 146 170 193 191 182 187 176 173 189 201 207 208
76 144 87 95 151 174 163 178 134 140 201 200 145 157 158 194 107 125 123 343 54 110 173 152 157 160 191 191 200 193 186 180 178 179 174 179 175 189 185 151 160 153 171 174 123 157 180 157 150 169 196 211 342 176 148 133 189 273 247 222 195 214 216 213 223 224 221 214 221 223 230 238 171 169 167 181 188 201 197 184 196 177 177 185 195 204 209 211